When you browse on this site, cookies collect data to enhance your experience and personalize the content and advertising you see.
Visit our Privacy Policy to learn more. By continuing to use the site, you agree to this use of cookies and data.

Hourly Weather Graz

Today, 5 July, Sunday

Time Temperature Precipitation Wind Pressure Humidity
00:00 +16°C° 0 mm 1 mps 726 mmHg 82%
01:00 +16°C° 0 mm 1 mps 727 mmHg 83%
02:00 +16°C° 0 mm 1 mps 726 mmHg 84%
03:00 +15°C° 0 mm 1 mps 726 mmHg 84%
04:00 +15°C° 0 mm 1 mps 726 mmHg 85%
05:00 +18°C° 0 mm 1 mps 726 mmHg 80%
06:00 +20°C° 0 mm 1 mps 727 mmHg 74%
07:00 +22°C° 0 mm 1 mps 727 mmHg 68%
08:00 +24°C° 0 mm 1 mps 727 mmHg 61%
09:00 +24°C° 0 mm 0 mps 727 mmHg 54%
10:00 +27°C° 0 mm 0 mps 728 mmHg 47%
11:00 +29°C° 0 mm 1 mps 727 mmHg 46%
12:00 +29°C° 0 mm 1 mps 727 mmHg 45%
13:00 +30°C° 0 mm 1 mps 726 mmHg 43%
14:00 +30°C° 0 mm 1 mps 726 mmHg 45%
15:00 +29°C° 0 mm 1 mps 725 mmHg 46%
16:00 +29°C° 0 mm 1 mps 725 mmHg 48%
17:00 +28°C° 0 mm 1 mps 725 mmHg 56%
18:00 +26°C° 0 mm 1 mps 725 mmHg 64%
19:00 +25°C° 0 mm 1 mps 725 mmHg 73%
20:00 +23°C° 0 mm 1 mps 725 mmHg 76%
21:00 +22°C° 0 mm 1 mps 725 mmHg 78%
22:00 +19°C° 0 mm 0 mps 725 mmHg 81%
23:00 +21°C° 0 mm 1 mps 724 mmHg 82%

Tomorrow, 6 July, Monday

Time Temperature Precipitation Wind Pressure Humidity
00:00 +20°C° 0 mm 1 mps 724 mmHg 82%
01:00 +20°C° 0 mm 1 mps 724 mmHg 83%
02:00 +20°C° 0 mm 1 mps 724 mmHg 83%
03:00 +20°C° 0 mm 1 mps 724 mmHg 83%
04:00 +19°C° 0 mm 1 mps 723 mmHg 84%
05:00 +21°C° 0 mm 1 mps 723 mmHg 79%
06:00 +21°C° 0 mm 0 mps 724 mmHg 75%
07:00 +22°C° 0 mm 0 mps 724 mmHg 71%
08:00 +26°C° 0.1 mm 1 mps 723 mmHg 66%
09:00 +27°C° 0.1 mm 1 mps 723 mmHg 62%
10:00 +28°C° 0.1 mm 2 mps 723 mmHg 58%
11:00 +28°C° 0.4 mm 2 mps 723 mmHg 61%
12:00 +28°C° 0.4 mm 2 mps 722 mmHg 64%
13:00 +28°C° 0.4 mm 2 mps 722 mmHg 68%
14:00 +27°C° 1.5 mm 2 mps 721 mmHg 73%
15:00 +26°C° 1.5 mm 1 mps 721 mmHg 79%
16:00 +26°C° 1.5 mm 1 mps 721 mmHg 84%
17:00 +24°C° 1.7 mm 1 mps 721 mmHg 86%
18:00 +23°C° 1.7 mm 2 mps 721 mmHg 89%
19:00 +21°C° 1.7 mm 2 mps 721 mmHg 91%
20:00 +19°C° 3.4 mm 2 mps 722 mmHg 91%
21:00 +16°C° 3.4 mm 3 mps 722 mmHg 91%
22:00 +13°C° 3.4 mm 3 mps 723 mmHg 90%
23:00 +13°C° 2.6 mm 3 mps 724 mmHg 91%

Day after tomorrow, 7 July, Tuesday

Time Temperature Precipitation Wind Pressure Humidity
00:00 +13°C° 2.6 mm 2 mps 724 mmHg 92%
01:00 +12°C° 2.6 mm 1 mps 725 mmHg 93%
02:00 +12°C° 1.9 mm 1 mps 725 mmHg 93%
03:00 +12°C° 1.9 mm 2 mps 725 mmHg 93%
04:00 +10°C° 1.9 mm 2 mps 725 mmHg 93%
05:00 +12°C° 0.3 mm 2 mps 725 mmHg 91%
06:00 +13°C° 0.3 mm 2 mps 725 mmHg 89%
07:00 +14°C° 0.3 mm 1 mps 726 mmHg 87%
08:00 +16°C° 0 mm 2 mps 726 mmHg 73%
09:00 +18°C° 0 mm 2 mps 726 mmHg 60%
10:00 +20°C° 0 mm 3 mps 726 mmHg 46%
11:00 +21°C° 0 mm 3 mps 726 mmHg 44%
12:00 +22°C° 0 mm 3 mps 725 mmHg 42%
13:00 +22°C° 0 mm 4 mps 725 mmHg 40%
14:00 +22°C° 0 mm 3 mps 725 mmHg 40%
15:00 +22°C° 0 mm 3 mps 725 mmHg 41%
16:00 +22°C° 0 mm 3 mps 725 mmHg 41%
17:00 +21°C° 0 mm 2 mps 725 mmHg 50%
18:00 +20°C° 0 mm 2 mps 725 mmHg 59%
19:00 +19°C° 0 mm 1 mps 725 mmHg 68%
20:00 +18°C° 0 mm 1 mps 725 mmHg 72%
21:00 +15°C° 0 mm 1 mps 726 mmHg 76%
22:00 +14°C° 0 mm 1 mps 726 mmHg 80%
23:00 +13°C° 0 mm 1 mps 726 mmHg 81%

8 July, Wednesday

Time Temperature Precipitation Wind Pressure Humidity
00:00 +13°C° 0 mm 1 mps 726 mmHg 83%
01:00 +12°C° 0 mm 1 mps 726 mmHg 84%
02:00 +12°C° 0 mm 1 mps 726 mmHg 85%
03:00 +12°C° 0 mm 1 mps 726 mmHg 85%
04:00 +11°C° 0 mm 1 mps 726 mmHg 86%
05:00 +13°C° 0 mm 1 mps 726 mmHg 79%
06:00 +14°C° 0 mm 0 mps 726 mmHg 72%
07:00 +16°C° 0 mm 0 mps 726 mmHg 65%
08:00 +19°C° 0 mm 0 mps 727 mmHg 59%
09:00 +23°C° 0 mm 1 mps 727 mmHg 53%
10:00 +25°C° 0 mm 1 mps 727 mmHg 46%
11:00 +25°C° 0 mm 1 mps 727 mmHg 44%
12:00 +26°C° 0 mm 1 mps 726 mmHg 41%
13:00 +27°C° 0 mm 2 mps 726 mmHg 38%
14:00 +27°C° 0 mm 2 mps 726 mmHg 40%
15:00 +27°C° 0 mm 2 mps 726 mmHg 41%
16:00 +27°C° 0 mm 2 mps 725 mmHg 43%
17:00 +25°C° 0 mm 2 mps 725 mmHg 52%
18:00 +23°C° 0 mm 1 mps 725 mmHg 62%
19:00 +22°C° 0 mm 1 mps 725 mmHg 72%
20:00 +20°C° 0 mm 1 mps 726 mmHg 75%
21:00 +19°C° 0 mm 1 mps 726 mmHg 78%
22:00 +15°C° 0 mm 0 mps 726 mmHg 81%
23:00 +16°C° 0 mm 1 mps 726 mmHg 81%

9 July, Thursday

Time Temperature Precipitation Wind Pressure Humidity
00:00 +16°C° 0 mm 1 mps 726 mmHg 82%
01:00 +15°C° 0 mm 1 mps 726 mmHg 82%
02:00 +15°C° 0 mm 1 mps 726 mmHg 82%
03:00 +15°C° 0 mm 1 mps 726 mmHg 83%
04:00 +15°C° 0 mm 1 mps 726 mmHg 83%
05:00 +18°C° 0 mm 1 mps 727 mmHg 78%
06:00 +18°C° 0 mm 0 mps 727 mmHg 72%
07:00 +20°C° 0 mm 0 mps 727 mmHg 67%
08:00 +23°C° 0 mm 1 mps 727 mmHg 61%
09:00 +25°C° 0 mm 1 mps 727 mmHg 54%
10:00 +27°C° 0 mm 1 mps 727 mmHg 48%
11:00 +28°C° 0 mm 2 mps 727 mmHg 46%
12:00 +28°C° 0 mm 2 mps 727 mmHg 44%
13:00 +29°C° 0 mm 2 mps 726 mmHg 41%
14:00 +29°C° 0 mm 2 mps 726 mmHg 42%
15:00 +29°C° 0 mm 3 mps 726 mmHg 43%
16:00 +29°C° 0 mm 3 mps 725 mmHg 44%
17:00 +27°C° 0 mm 2 mps 725 mmHg 53%
18:00 +25°C° 0 mm 2 mps 725 mmHg 62%
19:00 +24°C° 0 mm 1 mps 725 mmHg 71%
20:00 +22°C° 0 mm 1 mps 725 mmHg 74%
21:00 +21°C° 0 mm 1 mps 725 mmHg 77%
22:00 +19°C° 0 mm 1 mps 725 mmHg 80%
23:00 +19°C° 0 mm 1 mps 725 mmHg 80%

10 July, Friday

Time Temperature Precipitation Wind Pressure Humidity
00:00 +19°C° 0 mm 1 mps 725 mmHg 81%
01:00 +18°C° 0 mm 1 mps 725 mmHg 82%
02:00 +18°C° 0 mm 1 mps 725 mmHg 83%
03:00 +16°C° 0 mm 1 mps 724 mmHg 84%
04:00 +16°C° 0 mm 1 mps 724 mmHg 84%
05:00 +19°C° 0 mm 1 mps 724 mmHg 79%
06:00 +19°C° 0 mm 0 mps 724 mmHg 73%
07:00 +21°C° 0 mm 0 mps 725 mmHg 68%
08:00 +23°C° 0 mm 0 mps 725 mmHg 61%
09:00 +26°C° 0 mm 1 mps 725 mmHg 54%
10:00 +28°C° 0 mm 1 mps 725 mmHg 47%
11:00 +29°C° 0 mm 1 mps 724 mmHg 44%
12:00 +30°C° 0 mm 2 mps 724 mmHg 41%
13:00 +31°C° 0 mm 2 mps 724 mmHg 38%
14:00 +31°C° 0 mm 2 mps 723 mmHg 39%
15:00 +31°C° 0 mm 2 mps 723 mmHg 39%
16:00 +31°C° 0 mm 3 mps 723 mmHg 40%
17:00 +29°C° 0 mm 2 mps 723 mmHg 50%
18:00 +27°C° 0 mm 2 mps 723 mmHg 60%
19:00 +25°C° 0 mm 1 mps 723 mmHg 70%
20:00 +24°C° 0 mm 1 mps 723 mmHg 72%
21:00 +22°C° 0 mm 1 mps 723 mmHg 75%
22:00 +21°C° 0 mm 1 mps 723 mmHg 78%
23:00 +21°C° 0 mm 1 mps 723 mmHg 79%
Show more